ショーマス彗星

24P/Schaumasse (2026)

English version
Home page
Updated on November 3, 2020

---------------------------------------------------------------------

・ プロフィール

・ 軌道要素

Epoch 2025 Dec. 31.0 TT = JDT 2461040.5
T 2026 Jan. 8.29008 TT                                  MPCW
q   1.1839534            (2000.0)            P               Q
n   0.12056074     Peri.   58.48171     -0.71166265     -0.67484743
a   4.0581876      Node    78.27274     +0.55778383     -0.71173805
e   0.7082556      Incl.   11.50179     +0.42709890     -0.19496125
P   8.18
From 1049 observations 1992 Sept. 24-2018 Apr. 28, mean residual 0".9.
     Nongravitational parameters A1 = +0.06, A2 = -0.0477.

・ 星図

・ 光度変化

        m1 = 12.0 + 5 logΔ + 17.0 log r  [   ,-90]  (              〜2025年10月10日)
        m1 =  6.0 + 5 logΔ + 45.0 log r  [-90,  0]  (2025年10月10日〜2026年 1月 8日)
        m1 =  7.2 + 5 logΔ + 30.0 log r  [  0,170]  (2026年 1月 8日〜2026年 6月27日)
        m1 = 12.0 + 5 logΔ + 17.0 log r  [170,   ]  (2026年 6月27日〜              )

---------------------------------------------------------------------

軌道要素はM.P.E.C. 2018-H105に掲載されたものです。
星図はステラナビゲータ Ver.10 (アストロアーツ) で作成したものです。
光度グラフはComet for Windowsで作成したものです。

---------------------------------------------------------------------

Copyright(C) Seiichi Yoshida (comet@aerith.net). All rights reserved.